Location: Couloutre
(47.4081°N, 3.2259°E)
Time: 07:57:23
(UTC+00:00)

Cosmos 1627 Rocket - Pass Details

Date: 27 February 2020
Orbit: 950 x 1005 km, 82.9° (Epoch: 30 March)

Event Time Altitude Azimuth Distance (km) Brightness Sun altitude
Rises 19:29:49 0° 352° (N) 3,672 7.8 -21.3°
Reaches altitude 10° 19:32:23 10° 356° (N) 2,713 7.0 -21.7°
Maximum altitude 19:38:32 66° 78° (ENE) 1,043 4.4 -22.7°
Enters shadow 19:41:02 37° 148° (SSE) 1,451 5.0 -23.1°
